00:00:10,7A68F7E0,0,0,19650,4,0,146
00:01:14,7A68FFE0,0,0,19646,5,1,144
00:01:46,7A6903E0,0,0,19641,3,0,143
00:02:18,7A6907E0,0,0,19640,5,0,141
00:02:50,7A690BE0,0,0,19631,2,0,141
00:03:54,7A6913E0,0,0,19626,2,0,143
00:04:26,7A6917E0,0,0,19625,6,0,144
00:04:58,7A691BE0,0,0,19623,4,0,144
00:05:30,7A691FE0,0,0,19620,8,0,145
00:06:02,7A6923E0,0,0,19618,7,0,146
00:06:34,7A6927E0,0,0,19617,4,0,146
00:07:06,7A692BE0,0,0,19614,12,0,144
00:08:10,7A6933E0,0,0,19613,5,0,142
00:08:42,7A6937E0,0,0,19610,8,0,141
00:09:14,7A693BE0,0,0,19609,7,0,141
00:09:46,7A693FE0,0,0,19608,10,0,142
00:10:18,7A6943E0,0,0,19607,9,0,143
00:10:50,7A6947E0,0,0,19606,11,0,144
00:11:22,7A694BE0,0,0,19606,7,0,145
00:12:26,7A6953E0,0,0,19605,12,0,146
00:12:58,7A6957E0,0,0,19603,9,0,145
00:13:30,7A695BE0,0,0,19603,8,0,144
00:14:02,7A695FE0,0,0,19603,8,0,142
00:14:34,7A6963E0,0,0,19601,13,0,141
00:15:06,7A6967E0,0,0,19600,13,0,141
00:15:38,7A696BE0,0,0,19599,8,0,142
00:16:42,7A6973E0,0,0,19599,5,0,144
00:17:14,7A6977E0,0,0,19598,6,0,144
00:17:46,7A697BE0,0,0,19599,5,0,145
00:18:18,7A697FE0,0,0,19597,6,0,146
00:18:50,7A6983E0,0,0,19599,5,0,146
00:19:22,7A6987E0,0,0,19598,6,0,144
00:19:54,7A698BE0,0,0,19596,7,0,143
00:20:58,7A6993E0,0,0,19596,6,0,141
00:21:30,7A6997E0,0,0,19594,7,0,141
00:22:02,7A699BE0,0,0,19593,4,0,142
00:22:34,7A699FE0,0,0,19593,6,0,144
00:23:06,7A69A3E0,0,0,19590,6,0,144
00:23:38,7A69A7E0,0,0,19590,9,0,145
00:24:10,7A69ABE0,0,0,19589,7,0,146
00:25:14,7A69B3E0,0,0,19588,5,0,145
00:25:46,7A69B7E0,0,0,19587,11,0,143
00:26:18,7A69BBE0,0,0,19588,17,0,142
00:26:50,7A69BFE0,0,0,19588,7,0,141
00:27:22,7A69C3E0,0,0,19588,7,0,141
00:27:54,7A69C7E0,0,0,19587,19,0,142
00:28:26,7A69CBE0,0,0,19587,19,0,143
00:29:30,7A69D3E0,0,0,19586,8,0,145
00:30:02,7A69D7E0,0,0,19585,22,0,146
00:30:34,7A69DBE0,0,0,19585,10,0,146
00:31:06,7A69DFE0,0,0,19584,8,1,145
00:31:38,7A69E3E0,0,0,19584,8,0,144
00:32:10,7A69E7E0,0,0,19583,16,0,143
00:32:42,7A69EBE0,0,0,19582,11,0,142
00:33:46,7A69F3E0,0,0,19582,6,0,142
00:34:18,7A69F7E0,0,0,19579,8,0,143
00:34:50,7A69FBE0,0,0,19580,4,0,144
00:35:22,7A69FFE0,0,0,19578,11,0,144
00:35:54,7A6A03E0,0,0,19576,7,0,145
00:36:26,7A6A07E0,0,0,19577,10,0,146
00:36:58,7A6A0BE0,0,0,19576,6,0,146
00:38:02,7A6A13E0,0,0,19576,10,0,143
00:38:34,7A6A17E0,0,0,19576,11,0,142
00:39:06,7A6A1BE0,0,0,19577,7,0,141
00:39:38,7A6A1FE0,0,0,19576,6,0,142
00:40:10,7A6A23E0,0,0,19576,7,0,142
00:40:42,7A6A27E0,0,0,19576,5,0,143
00:41:14,7A6A2BE0,0,0,19575,8,0,144
00:42:18,7A6A33E0,0,0,19575,15,0,146
00:42:50,7A6A37E0,0,0,19575,5,0,146
00:43:22,7A6A3BE0,0,0,19574,7,0,144
00:43:54,7A6A3FE0,0,0,19573,26,0,143
00:44:26,7A6A43E0,0,0,19572,5,0,142
00:44:58,7A6A47E0,0,0,19572,7,0,141
00:45:30,7A6A4BE0,0,0,19571,6,0,141
00:46:34,7A6A53E0,0,0,19568,9,0,143
00:47:06,7A6A57E0,0,0,19567,5,0,144
00:47:38,7A6A5BE0,0,0,19567,6,0,145
00:48:10,7A6A5FE0,0,0,19566,6,0,145
00:48:42,7A6A63E0,0,0,19565,7,0,146
00:49:14,7A6A67E0,0,0,19565,8,0,145
00:49:46,7A6A6BE0,0,0,19564,8,0,144
00:50:50,7A6A73E0,0,0,19564,7,0,142
00:51:22,7A6A77E0,0,0,19564,5,0,141
00:51:54,7A6A7BE0,0,0,19563,8,0,142
00:52:26,7A6A7FE0,0,0,19563,7,0,143
00:52:58,7A6A83E0,0,0,19562,5,0,143
00:53:30,7A6A87E0,0,0,19561,5,0,145
00:54:02,7A6A8BE0,0,0,19560,5,0,145
00:55:06,7A6A93E0,0,0,19560,5,0,146
00:55:38,7A6A97E0,0,0,19556,7,0,145
00:56:10,7A6A9BE0,0,0,19554,7,0,143
00:56:42,7A6A9FE0,0,0,19555,7,0,142
00:57:14,7A6AA3E0,0,0,19555,6,0,141
00:57:46,7A6AA7E0,0,0,19555,8,0,141
00:58:18,7A6AABE0,0,0,19554,8,0,142
00:59:22,7A6AB3E0,0,0,19552,5,0,144
00:59:54,7A6AB7E0,0,0,19550,6,0,145
01:00:26,7A6ABBE0,0,0,19549,6,0,146
01:00:58,7A6ABFE0,0,0,19547,7,0,146
01:01:30,7A6AC3E0,0,0,19547,5,0,145
01:02:02,7A6AC7E0,0,0,19547,5,0,144
01:02:34,7A6ACBE0,0,0,19544,5,1,142
01:03:38,7A6AD3E0,0,0,19543,6,0,141
01:04:10,7A6AD7E0,0,0,19542,6,1,142
01:04:42,7A6ADBE0,0,0,19542,7,0,143
01:05:14,7A6ADFE0,0,0,19539,5,0,144
01:05:46,7A6AE3E0,0,0,19539,5,0,145
01:06:18,7A6AE7E0,0,0,19537,13,0,145
01:06:50,7A6AEBE0,0,0,19537,6,0,146
01:07:54,7A6AF3E0,0,0,19534,14,0,144
01:08:26,7A6AF7E0,0,0,19533,25,0,143
01:08:58,7A6AFBE0,0,0,19532,8,0,142
01:09:30,7A6AFFE0,0,0,19531,17,0,141
01:10:02,7A6B03E0,0,0,19530,9,1,141
01:10:34,7A6B07E0,0,0,19531,6,0,142
01:11:06,7A6B0BE0,0,0,19531,14,0,143
01:12:10,7A6B13E0,0,0,19529,6,0,145
01:12:42,7A6B17E0,0,0,19527,7,0,146
01:13:14,7A6B1BE0,0,0,19526,9,0,146
01:13:46,7A6B1FE0,0,0,19527,8,0,145
01:14:18,7A6B23E0,0,0,19525,7,0,144
01:14:50,7A6B27E0,0,0,19525,5,0,142
01:15:22,7A6B2BE0,0,0,19521,6,0,142
01:16:26,7A6B33E0,0,0,19522,5,0,142
01:16:58,7A6B37E0,0,0,19521,6,0,143
01:17:30,7A6B3BE0,0,0,19521,5,0,144
01:18:02,7A6B3FE0,0,0,19520,5,0,145
01:18:34,7A6B43E0,0,0,19516,9,0,145
01:19:06,7A6B47E0,0,0,19516,8,0,146
01:19:38,7A6B4BE0,0,0,19516,8,0,146
01:20:42,7A6B53E0,0,0,19515,8,1,143
01:21:14,7A6B57E0,0,0,19513,5,0,142
01:21:46,7A6B5BE0,0,0,19512,7,0,141
01:22:18,7A6B5FE0,0,0,19511,6,0,142
01:22:50,7A6B63E0,0,0,19512,6,0,143
01:23:22,7A6B67E0,0,0,19510,4,0,143
01:23:54,7A6B6BE0,0,0,19509,6,0,144
01:24:58,7A6B73E0,0,0,19506,7,0,146
01:25:30,7A6B77E0,0,0,19505,7,0,146
01:26:02,7A6B7BE0,0,0,19505,7,0,145
01:26:34,7A6B7FE0,0,0,19503,7,0,143
01:27:06,7A6B83E0,0,0,19503,7,0,142
01:27:38,7A6B87E0,0,0,19501,8,0,141
01:28:10,7A6B8BE0,0,0,19500,9,0,141
01:29:14,7A6B93E0,0,0,19499,5,0,143
01:29:46,7A6B97E0,0,0,19498,5,0,144
01:30:18,7A6B9BE0,0,0,19498,5,0,145
01:30:50,7A6B9FE0,0,0,19495,14,0,145
01:31:22,7A6BA3E0,0,0,19495,17,0,146
01:31:54,7A6BA7E0,0,0,19495,6,0,146
01:32:26,7A6BABE0,0,0,19495,21,0,144
01:33:30,7A6BB3E0,0,0,19494,10,0,142
01:34:02,7A6BB7E0,0,0,19493,7,0,141
01:34:34,7A6BBBE0,0,0,19494,7,0,142
01:35:06,7A6BBFE0,0,0,19491,8,0,143
01:35:38,7A6BC3E0,0,0,19493,6,0,143
01:36:10,7A6BC7E0,0,0,19494,6,0,144
01:36:42,7A6BCBE0,0,0,19493,7,0,145
01:37:46,7A6BD3E0,0,0,19489,8,0,146
01:38:18,7A6BD7E0,0,0,19489,7,0,144
01:38:50,7A6BDBE0,0,0,19486,9,0,143
01:39:22,7A6BDFE0,0,0,19485,7,0,142
01:39:54,7A6BE3E0,0,0,19483,8,0,141
01:40:26,7A6BE7E0,0,0,19481,6,0,141
01:40:58,7A6BEBE0,0,0,19480,9,0,142
01:42:02,7A6BF3E0,0,0,19476,9,0,144
01:42:34,7A6BF7E0,0,0,19476,7,0,145
01:43:06,7A6BFBE0,0,0,19475,21,0,145
01:43:38,7A6BFFE0,0,0,19475,17,1,146
01:44:10,7A6C03E0,0,0,19474,7,0,145
01:44:42,7A6C07E0,0,0,19474,7,0,144
01:45:14,7A6C0BE0,0,0,19473,11,0,143
01:46:18,7A6C13E0,0,0,19474,6,0,141
01:46:50,7A6C17E0,0,0,19475,9,0,142
01:47:22,7A6C1BE0,0,0,19475,5,0,143
01:47:54,7A6C1FE0,0,0,19477,7,0,143
01:48:26,7A6C23E0,0,0,19476,9,0,145
01:48:58,7A6C27E0,0,0,19477,7,0,145
01:49:30,7A6C2BE0,0,0,19478,5,0,146
01:50:34,7A6C33E0,0,0,19478,25,0,145
01:51:06,7A6C37E0,0,0,19478,27,0,144
01:51:38,7A6C3BE0,0,0,19478,17,0,142
01:52:10,7A6C3FE0,0,0,19477,9,0,141
01:52:42,7A6C43E0,0,0,19478,10,0,141
01:53:14,7A6C47E0,0,0,19476,26,1,142
01:53:46,7A6C4BE0,0,0,19474,10,0,143
01:54:50,7A6C53E0,0,0,19471,8,0,145
01:55:22,7A6C57E0,0,0,19469,5,0,146
01:55:54,7A6C5BE0,0,0,19466,9,0,146
01:56:26,7A6C5FE0,0,0,19464,8,0,145
01:56:58,7A6C63E0,0,0,19461,6,0,144
01:57:30,7A6C67E0,0,0,19459,7,0,142
01:58:02,7A6C6BE0,0,0,19456,22,0,142
01:59:06,7A6C73E0,0,0,19451,6,0,142
01:59:38,7A6C77E0,0,0,19450,7,0,143
02:00:10,7A6C7BE0,0,0,19450,7,0,144
02:00:42,7A6C7FE0,0,0,19448,7,0,145
02:01:14,7A6C83E0,0,0,19448,27,0,145
02:01:46,7A6C87E0,0,0,19446,15,0,146
02:02:18,7A6C8BE0,0,0,19446,10,0,146
02:03:22,7A6C93E0,0,0,19446,23,0,143
02:03:54,7A6C97E0,0,0,19447,7,0,142
02:04:26,7A6C9BE0,0,0,19446,7,0,141
02:04:58,7A6C9FE0,0,0,19445,13,0,141
02:05:30,7A6CA3E0,0,0,19445,8,0,142
02:06:02,7A6CA7E0,0,0,19444,9,0,143
02:06:34,7A6CABE0,0,0,19443,8,0,144
02:07:38,7A6CB3E0,0,0,19442,11,0,146
02:08:10,7A6CB7E0,0,0,19442,20,0,146
02:08:42,7A6CBBE0,0,0,19442,18,0,145
02:09:14,7A6CBFE0,0,0,19441,15,0,143
02:09:46,7A6CC3E0,0,0,19441,26,1,142
02:10:18,7A6CC7E0,0,0,19441,29,0,141
02:10:50,7A6CCBE0,0,0,19440,12,0,141
02:11:54,7A6CD3E0,0,0,19439,25,1,143
02:12:26,7A6CD7E0,0,0,19439,10,1,144
02:12:58,7A6CDBE0,0,0,19439,17,0,145
02:13:30,7A6CDFE0,0,0,19438,20,0,145
02:14:02,7A6CE3E0,0,0,19437,8,0,146
02:14:34,7A6CE7E0,0,0,19436,15,0,145
02:15:06,7A6CEBE0,0,0,19436,25,0,144
02:16:10,7A6CF3E0,0,0,19434,29,0,142
02:16:42,7A6CF7E0,0,0,19433,11,0,141
02:17:14,7A6CFBE0,0,0,19432,30,0,142
02:17:46,7A6CFFE0,0,0,19431,11,0,143
02:18:18,7A6D03E0,0,0,19430,7,0,144
02:18:50,7A6D07E0,0,0,19429,19,1,145
02:19:22,7A6D0BE0,0,0,19429,8,0,145
02:20:26,7A6D13E0,0,0,19427,8,0,145
02:20:58,7A6D17E0,0,0,19426,19,0,144
02:21:30,7A6D1BE0,0,0,19425,21,0,143
02:22:02,7A6D1FE0,0,0,19424,27,0,142
02:22:34,7A6D23E0,0,0,19424,10,0,141
02:23:06,7A6D27E0,0,0,19423,10,0,141
02:23:38,7A6D2BE0,0,0,19424,8,0,143
02:24:42,7A6D33E0,0,0,19422,10,0,144
02:25:14,7A6D37E0,0,0,19422,8,0,145
02:25:46,7A6D3BE0,0,0,19422,12,1,146
02:26:18,7A6D3FE0,0,0,19421,8,0,146
02:26:50,7A6D43E0,0,0,19421,8,0,145
02:27:22,7A6D47E0,0,0,19420,28,0,143
02:27:54,7A6D4BE0,0,0,19419,24,1,142
02:28:58,7A6D53E0,0,0,19418,14,0,141
02:29:30,7A6D57E0,0,0,19417,26,0,142
02:30:02,7A6D5BE0,0,0,19416,16,0,143
02:30:34,7A6D5FE0,0,0,19416,35,0,144
02:31:06,7A6D63E0,0,0,19415,18,0,145
02:31:38,7A6D67E0,0,0,19414,25,0,145
02:32:10,7A6D6BE0,0,0,19414,15,0,146
02:33:14,7A6D73E0,0,0,19412,15,0,144
02:33:46,7A6D77E0,0,0,19411,21,0,143
02:34:18,7A6D7BE0,0,0,19410,32,1,142
02:34:50,7A6D7FE0,0,0,19410,25,0,141
02:35:22,7A6D83E0,0,0,19409,30,0,142
02:35:54,7A6D87E0,0,0,19409,11,0,143
02:36:26,7A6D8BE0,0,0,19408,9,0,144
02:37:30,7A6D93E0,0,0,19407,9,0,145
02:38:02,7A6D97E0,0,0,19407,21,0,146
02:38:34,7A6D9BE0,0,0,19406,7,0,146
02:39:06,7A6D9FE0,0,0,19406,26,0,144
02:39:38,7A6DA3E0,0,0,19405,28,0,143
02:40:10,7A6DA7E0,0,0,19405,20,0,142
02:40:42,7A6DABE0,0,0,19403,18,0,141
02:41:46,7A6DB3E0,0,0,19402,7,0,142
02:42:18,7A6DB7E0,0,0,19401,23,0,143
02:42:50,7A6DBBE0,0,0,19401,19,1,144
02:43:22,7A6DBFE0,0,0,19400,10,0,145
02:43:54,7A6DC3E0,0,0,19399,15,0,145
02:44:26,7A6DC7E0,0,0,19398,9,0,146
02:44:58,7A6DCBE0,0,0,19398,18,0,145
02:46:02,7A6DD3E0,0,0,19397,24,0,143
02:46:34,7A6DD7E0,0,0,19397,15,0,141
02:47:06,7A6DDBE0,0,0,19396,31,0,141
02:47:38,7A6DDFE0,0,0,19396,24,0,142
02:48:10,7A6DE3E0,0,0,19395,11,0,143
02:48:42,7A6DE7E0,0,0,19395,28,0,144
02:49:14,7A6DEBE0,0,0,19394,8,0,144
02:50:18,7A6DF3E0,0,0,19392,19,0,146
02:50:50,7A6DF7E0,0,0,19392,12,0,146
02:51:22,7A6DFBE0,0,0,19390,28,0,144
02:51:54,7A6DFFE0,0,0,19390,24,1,143
02:52:26,7A6E03E0,0,0,19389,8,0,142
02:52:58,7A6E07E0,0,0,19388,10,0,141
02:53:30,7A6E0BE0,0,0,19387,6,0,141
02:54:34,7A6E13E0,0,0,19386,8,0,143
02:55:06,7A6E17E0,0,0,19385,17,0,144
02:55:38,7A6E1BE0,0,0,19384,8,0,145
02:56:10,7A6E1FE0,0,0,19384,18,0,146
02:56:42,7A6E23E0,0,0,19383,11,0,146
02:57:14,7A6E27E0,0,0,19382,24,1,145
02:57:46,7A6E2BE0,0,0,19382,16,1,144
02:58:50,7A6E33E0,0,0,19381,8,0,141
02:59:22,7A6E37E0,0,0,19381,27,0,141
02:59:54,7A6E3BE0,0,0,19379,9,0,142
03:00:26,7A6E3FE0,0,0,19379,8,0,143
03:00:58,7A6E43E0,0,0,19378,7,0,144
03:01:30,7A6E47E0,0,0,19376,8,0,145
03:02:02,7A6E4BE0,0,0,19375,17,0,146
03:03:06,7A6E53E0,0,0,19373,7,0,145
03:03:38,7A6E57E0,0,0,19373,7,0,144
03:04:10,7A6E5BE0,0,0,19372,9,0,142
03:04:42,7A6E5FE0,0,0,19375,6,0,142
03:05:14,7A6E63E0,0,0,19374,8,0,141
03:05:46,7A6E67E0,0,0,19373,7,0,142
03:06:18,7A6E6BE0,0,0,19374,7,0,143
03:07:22,7A6E73E0,0,0,19375,6,0,145
03:07:54,7A6E77E0,0,0,19375,7,0,145
03:08:26,7A6E7BE0,0,0,19376,6,1,146
03:08:58,7A6E7FE0,0,0,19376,6,0,146
03:09:30,7A6E83E0,0,0,19375,9,0,145
03:10:02,7A6E87E0,0,0,19377,8,0,143
03:10:34,7A6E8BE0,0,0,19378,10,1,142
03:11:38,7A6E93E0,0,0,19379,13,0,141
03:12:10,7A6E97E0,0,0,19380,8,0,142
03:12:42,7A6E9BE0,0,0,19380,22,1,143
03:13:14,7A6E9FE0,0,0,19379,8,0,144
03:13:46,7A6EA3E0,0,0,19379,29,0,145
03:14:18,7A6EA7E0,0,0,19379,18,1,146
03:14:50,7A6EABE0,0,0,19378,25,0,146
03:15:54,7A6EB3E0,0,0,19375,24,0,143
03:16:26,7A6EB7E0,0,0,19373,11,0,142
03:16:58,7A6EBBE0,0,0,19364,7,0,141
03:17:30,7A6EBFE0,0,0,19361,2,0,141
03:18:02,7A6EC3E0,0,0,19360,2,0,142
03:18:34,7A6EC7E0,0,0,19357,4,0,143
03:19:06,7A6ECBE0,0,0,19356,3,0,144
03:20:10,7A6ED3E0,0,0,19352,4,0,145
03:20:42,7A6ED7E0,0,0,19349,7,0,146
03:21:14,7A6EDBE0,0,0,19350,7,0,146
03:21:46,7A6EDFE0,0,0,19348,7,0,144
03:22:18,7A6EE3E0,0,0,19348,22,0,143
03:22:50,7A6EE7E0,0,0,19347,14,0,142
03:23:22,7A6EEBE0,0,0,19345,17,0,141
03:24:26,7A6EF3E0,0,0,19343,25,0,143
03:24:58,7A6EF7E0,0,0,19341,22,1,143
03:25:30,7A6EFBE0,0,0,19339,15,0,144
03:26:02,7A6EFFE0,0,0,19338,9,0,145
03:26:34,7A6F03E0,0,0,19338,13,0,146
03:27:06,7A6F07E0,0,0,19337,9,1,146
03:27:38,7A6F0BE0,0,0,19336,10,0,144
03:28:42,7A6F13E0,0,0,19334,23,0,142
03:29:14,7A6F17E0,0,0,19333,25,0,141
03:29:46,7A6F1BE0,0,0,19333,26,1,141
03:30:18,7A6F1FE0,0,0,19332,13,1,142
03:30:50,7A6F23E0,0,0,19332,17,0,143
03:31:22,7A6F27E0,0,0,19330,9,0,144
03:31:54,7A6F2BE0,0,0,19330,22,0,145
03:32:58,7A6F33E0,0,0,19329,8,0,146
03:33:30,7A6F37E0,0,0,19327,10,0,145
03:34:02,7A6F3BE0,0,0,19327,20,1,144
03:34:34,7A6F3FE0,0,0,19327,28,0,142
03:35:06,7A6F43E0,0,0,19325,24,0,141
03:35:38,7A6F47E0,0,0,19324,27,0,141
03:36:10,7A6F4BE0,0,0,19323,8,0,142
03:37:14,7A6F53E0,0,0,19321,7,0,144
03:37:46,7A6F57E0,0,0,19320,27,0,145
03:38:18,7A6F5BE0,0,0,19319,7,0,145
03:38:50,7A6F5FE0,0,0,19319,27,1,146
03:39:22,7A6F63E0,0,0,19319,28,1,145
03:39:54,7A6F67E0,0,0,19317,24,0,144
03:40:26,7A6F6BE0,0,0,19317,13,0,143
03:41:30,7A6F73E0,0,0,19315,30,0,141
03:42:02,7A6F77E0,0,0,19314,32,1,141
03:42:34,7A6F7BE0,0,0,19313,23,0,142
03:43:06,7A6F7FE0,0,0,19312,15,0,143
03:43:38,7A6F83E0,0,0,19310,11,0,144
03:44:10,7A6F87E0,0,0,19309,26,0,145
03:44:42,7A6F8BE0,0,0,19308,9,0,145
03:45:46,7A6F93E0,0,0,19307,13,1,145
03:46:18,7A6F97E0,0,0,19306,32,0,144
03:46:50,7A6F9BE0,0,0,19305,9,0,142
03:47:22,7A6F9FE0,0,0,19304,11,0,141
03:47:54,7A6FA3E0,0,0,19303,21,0,141
03:48:26,7A6FA7E0,0,0,19302,27,0,142
03:48:58,7A6FABE0,0,0,19301,29,0,143
03:50:02,7A6FB3E0,0,0,19300,9,0,145
03:50:34,7A6FB7E0,0,0,19298,31,0,145
03:51:06,7A6FBBE0,0,0,19298,10,0,146
03:51:38,7A6FBFE0,0,0,19297,23,0,145
03:52:10,7A6FC3E0,0,0,19296,26,1,144
03:52:42,7A6FC7E0,0,0,19295,13,0,143
03:53:14,7A6FCBE0,0,0,19294,31,0,142
03:54:18,7A6FD3E0,0,0,19293,28,0,141
03:54:50,7A6FD7E0,0,0,19292,13,0,143
03:55:22,7A6FDBE0,0,0,19290,7,0,144
03:55:54,7A6FDFE0,0,0,19289,7,0,144
03:56:26,7A6FE3E0,0,0,19287,10,0,145
03:56:58,7A6FE7E0,0,0,19287,11,0,146
03:57:30,7A6FEBE0,0,0,19286,10,0,146
03:58:34,7A6FF3E0,0,0,19285,10,0,143
03:59:06,7A6FF7E0,0,0,19284,13,0,142
03:59:38,7A6FFBE0,0,0,19284,24,0,141
04:00:10,7A6FFFE0,0,0,19285,22,0,141
04:00:42,7A7003E0,0,0,19282,24,0,142
04:01:14,7A7007E0,0,0,19281,8,0,143
04:01:46,7A700BE0,0,0,19280,9,0,144
04:02:50,7A7013E0,0,0,19278,8,0,145
04:03:22,7A7017E0,0,0,19278,13,0,146
04:03:54,7A701BE0,0,0,19277,6,0,145
04:04:26,7A701FE0,0,0,19278,8,1,144
04:04:58,7A7023E0,0,0,19277,8,0,143
04:05:30,7A7027E0,0,0,19281,11,0,141
04:06:02,7A702BE0,0,0,19279,28,0,141
04:07:06,7A7033E0,0,0,19280,30,0,143
04:07:38,7A7037E0,0,0,19281,15,0,144
04:08:10,7A703BE0,0,0,19281,18,1,144
04:08:42,7A703FE0,0,0,19281,6,0,145
04:09:14,7A7043E0,0,0,19281,22,0,146
04:09:46,7A7047E0,0,0,19281,27,0,145
04:10:18,7A704BE0,0,0,19280,30,0,144
04:11:22,7A7053E0,0,0,19280,30,0,142
04:11:54,7A7057E0,0,0,19281,6,0,141
04:12:26,7A705BE0,0,0,19281,8,0,141
04:12:58,7A705FE0,0,0,19283,8,0,142
04:13:30,7A7063E0,0,0,19284,5,0,144
04:14:02,7A7067E0,0,0,19283,5,0,144
04:14:34,7A706BE0,0,0,19284,6,0,145
04:15:38,7A7073E0,0,0,19286,5,0,146
04:16:10,7A7077E0,0,0,19290,6,0,145
04:16:42,7A707BE0,0,0,19291,8,0,143
04:17:14,7A707FE0,0,0,19294,4,0,142
04:17:46,7A7083E0,0,0,19295,4,0,141
04:18:18,7A7087E0,0,0,19298,3,0,141
04:18:50,7A708BE0,0,0,19299,3,0,142
04:19:54,7A7093E0,0,0,19302,3,0,144
04:20:26,7A7097E0,0,0,19305,2,0,145
04:20:58,7A709BE0,0,0,19309,6,0,146
04:21:30,7A709FE0,0,0,19309,3,0,146
04:22:02,7A70A3E0,0,0,19313,4,0,145
04:22:34,7A70A7E0,0,0,19314,3,0,143
04:23:06,7A70ABE0,0,0,19313,7,0,143
04:24:10,7A70B3E0,0,0,19318,8,0,141
04:24:42,7A70B7E0,0,0,19319,5,0,142
04:25:14,7A70BBE0,0,0,19321,5,0,143
04:25:46,7A70BFE0,0,0,19322,4,0,144
04:26:18,7A70C3E0,0,0,19323,9,0,145
04:26:50,7A70C7E0,0,0,19324,6,0,145
04:27:22,7A70CBE0,0,0,19325,15,0,146
04:28:26,7A70D3E0,0,0,19327,27,0,144
04:28:58,7A70D7E0,0,0,19328,20,1,143
04:29:30,7A70DBE0,0,0,19328,27,0,142
04:30:02,7A70DFE0,0,0,19328,8,0,141
04:30:34,7A70E3E0,0,0,19327,8,0,141
04:31:06,7A70E7E0,0,0,19326,7,0,142
04:31:38,7A70EBE0,0,0,19326,7,0,143
04:32:42,7A70F3E0,0,0,19327,24,0,145
04:33:14,7A70F7E0,0,0,19326,25,0,146
04:33:46,7A70FBE0,0,0,19327,30,0,146
04:34:18,7A70FFE0,0,0,19326,12,0,145
04:34:50,7A7103E0,0,0,19326,22,0,143
04:35:22,7A7107E0,0,0,19325,14,0,142
04:35:54,7A710BE0,0,0,19325,16,0,141
04:36:58,7A7113E0,0,0,19323,4,0,142
04:37:30,7A7117E0,0,0,19322,4,0,143
04:38:02,7A711BE0,0,0,19311,2,0,144
04:38:34,7A711FE0,0,0,19312,4,0,145
04:39:06,7A7123E0,0,0,19310,4,0,145
04:39:38,7A7127E0,0,0,19310,7,0,146
04:40:10,7A712BE0,0,0,19309,5,0,145
04:41:14,7A7133E0,0,0,19315,24,0,143
04:41:46,7A7137E0,0,0,19314,26,0,141
04:42:18,7A713BE0,0,0,19314,19,0,141
04:42:50,7A713FE0,0,0,19313,27,0,142
04:43:22,7A7143E0,0,0,19313,8,0,143
04:43:54,7A7147E0,0,0,19309,14,0,144
04:44:26,7A714BE0,0,0,19308,13,0,145
04:45:30,7A7153E0,0,0,19309,9,0,146
04:46:02,7A7157E0,0,0,19310,7,0,145
04:46:34,7A715BE0,0,0,19308,7,0,144
04:47:06,7A715FE0,0,0,19309,5,0,143
04:47:38,7A7163E0,0,0,19309,8,0,142
04:48:10,7A7167E0,0,0,19310,5,0,141
04:48:42,7A716BE0,0,0,19311,6,0,141
04:49:46,7A7173E0,0,0,19313,5,0,143
04:50:18,7A7177E0,0,0,19315,4,0,144
04:50:50,7A717BE0,0,0,19315,4,0,145
04:51:22,7A717FE0,0,0,19315,6,0,145
04:51:54,7A7183E0,0,0,19315,4,0,146
04:52:26,7A7187E0,0,0,19316,7,0,145
04:52:58,7A718BE0,0,0,19317,7,0,144
04:54:02,7A7193E0,0,0,19321,6,0,141
04:54:34,7A7197E0,0,0,19321,6,1,141
04:55:06,7A719BE0,0,0,19323,3,0,142
04:55:38,7A719FE0,0,0,19323,6,0,143
04:56:10,7A71A3E0,0,0,19322,5,0,144
04:56:42,7A71A7E0,0,0,19323,3,0,145
04:57:14,7A71ABE0,0,0,19322,5,1,145
04:58:18,7A71B3E0,0,0,19323,3,0,145
04:58:50,7A71B7E0,0,0,19337,2,0,144
04:59:22,7A71BBE0,0,0,19327,3,0,143
04:59:54,7A71BFE0,0,0,19336,3,0,142
05:00:26,7A71C3E0,0,0,19334,6,0,141
05:00:58,7A71C7E0,0,0,19334,3,0,141
05:01:30,7A71CBE0,0,0,19333,6,0,143
05:02:34,7A71D3E0,0,0,19336,4,0,144
05:03:06,7A71D7E0,0,0,19338,4,0,145
05:03:38,7A71DBE0,0,0,19338,4,0,146
05:04:10,7A71DFE0,0,0,19338,5,0,146
05:04:42,7A71E3E0,0,0,19338,6,0,145
05:05:14,7A71E7E0,0,0,19338,6,0,143
05:05:46,7A71EBE0,0,0,19336,6,0,142
05:06:50,7A71F3E0,0,0,19338,6,0,141
05:07:22,7A71F7E0,0,0,19341,5,0,142
05:07:54,7A71FBE0,0,0,19341,5,0,143
05:08:26,7A71FFE0,0,0,19343,3,0,144
05:08:58,7A7203E0,0,0,19341,6,0,145
05:09:30,7A7207E0,0,0,19345,4,0,145
05:10:02,7A720BE0,0,0,19347,4,0,146
05:11:06,7A7213E0,0,0,19346,5,0,144
05:11:38,7A7217E0,0,0,19346,5,0,143
05:12:10,7A721BE0,0,0,19346,6,0,141
05:12:42,7A721FE0,0,0,19345,5,0,141
05:13:14,7A7223E0,0,0,19346,5,0,142
05:13:46,7A7227E0,0,0,19346,6,0,143
05:14:18,7A722BE0,0,0,19347,3,0,144
05:15:22,7A7233E0,0,0,19346,3,0,145
05:15:54,7A7237E0,0,0,19345,2,0,146
05:16:26,7A723BE0,0,0,56,0,0,146
05:16:58,7A723FE0,0,0,19346,2,0,144
05:17:30,7A7243E0,0,0,19366,0,0,143
05:18:02,7A7247E0,0,0,19357,1,0,142
05:18:34,7A724BE0,0,0,19361,5,0,141
05:19:38,7A7253E0,0,0,19356,5,0,142
05:20:10,7A7257E0,0,0,19357,4,0,143
05:20:42,7A725BE0,0,0,19357,4,0,144
05:21:14,7A725FE0,0,0,19356,6,0,145
05:21:46,7A7263E0,0,0,19355,6,1,145
05:22:18,7A7267E0,0,0,19355,4,0,146
05:22:50,7A726BE0,0,0,19357,2,0,145
05:23:54,7A7273E0,0,0,19356,3,0,142
05:24:26,7A7277E0,0,0,19359,2,0,141
05:24:58,7A727BE0,0,0,19362,4,0,141
05:25:30,7A727FE0,0,0,19360,5,0,142
05:26:02,7A7283E0,0,0,19361,5,0,143
05:26:34,7A7287E0,0,0,19361,2,1,144
05:27:06,7A728BE0,0,0,19368,2,0,144
05:28:10,7A7293E0,0,0,19367,4,0,146
05:28:42,7A7297E0,0,0,19137,0,0,145
05:29:14,7A729BE0,0,0,19368,6,0,144
05:29:46,7A729FE0,0,0,19370,4,0,143
05:30:18,7A72A3E0,0,0,19368,6,0,142
05:30:50,7A72A7E0,0,0,19371,3,0,141
05:31:22,7A72ABE0,0,0,19370,5,1,141
05:32:26,7A72B3E0,0,0,19371,5,0,144
05:32:58,7A72B7E0,0,0,19372,5,0,144
05:34:02,7A72BFE0,0,0,19375,5,0,146
05:35:06,7A72C7E0,0,0,19377,2,0,145
05:35:38,7A72CBE0,0,0,19376,4,0,143
05:37:14,7A72D7E0,0,0,19377,4,0,141
05:38:18,7A72DFE0,0,0,19378,4,0,143
05:39:22,7A72E7E0,0,0,19382,5,0,145
05:41:30,7A72F7E0,0,0,19380,6,0,143
05:42:34,7A72FFE0,0,0,19380,4,0,142
05:43:38,7A7307E0,0,0,19377,5,0,142
05:45:46,7A7317E0,0,0,19378,3,0,145
05:46:50,7A731FE0,0,0,19378,4,0,146
05:47:54,7A7327E0,0,0,19382,5,0,143
05:50:02,7A7337E0,0,0,19381,4,0,143
05:51:06,7A733FE0,0,0,19383,5,0,144
05:52:10,7A7347E0,0,0,19384,7,0,146
05:54:18,7A7357E0,0,0,19385,7,0,142
05:55:22,7A735FE0,0,0,19385,3,0,141
05:56:26,7A7367E0,0,0,19384,6,0,143
05:58:34,7A7377E0,0,0,19386,4,0,146
05:59:38,7A737FE0,0,0,19387,7,0,143
06:00:42,7A7387E0,0,0,19386,6,0,141
06:02:50,7A7397E0,0,0,19386,7,0,144
06:03:54,7A739FE0,0,0,19387,5,0,145
06:04:58,7A73A7E0,0,0,19387,5,0,145
06:07:06,7A73B7E0,0,0,19387,7,0,141
06:08:10,7A73BFE0,0,0,19387,4,0,143
06:09:14,7A73C7E0,0,0,19387,7,0,144
06:11:21,7A73D7E0,0,0,19385,8,0,144
06:12:25,7A73DFE0,0,0,19385,9,0,142
06:13:29,7A73E7E0,0,0,19383,6,0,141
06:15:37,7A73F7E0,0,0,19382,7,0,145
06:16:41,7A73FFE0,0,0,19380,8,0,146
06:17:45,7A7407E0,0,0,19379,8,0,144
06:19:53,7A7417E0,0,0,19380,9,0,142
06:20:57,7A741FE0,0,0,19379,5,0,144
06:22:01,7A7427E0,0,0,19379,5,0,145
06:24:09,7A7437E0,0,0,19378,8,0,143
06:25:13,7A743FE0,0,0,19378,6,0,141
06:26:17,7A7447E0,0,0,19379,8,0,142
06:28:25,7A7457E0,0,0,19376,7,0,145
06:29:29,7A745FE0,0,0,19377,7,0,145
06:30:33,7A7467E0,0,0,19377,9,0,142
06:32:41,7A7477E0,0,0,19377,9,1,143
06:33:45,7A747FE0,0,0,19376,18,1,145
06:34:49,7A7487E0,0,0,19377,8,0,146
06:36:57,7A7497E0,0,0,19375,23,0,142
06:38:01,7A749FE0,0,0,19375,24,0,141
06:39:05,7A74A7E0,0,0,19375,8,1,143
06:41:13,7A74B7E0,0,0,19374,17,0,146
06:42:17,7A74BFE0,0,0,19375,10,0,144
06:43:21,7A74C7E0,0,0,19375,8,0,142
06:45:29,7A74D7E0,0,0,19378,5,0,143
06:46:33,7A74DFE0,0,0,19380,5,0,145
06:47:37,7A74E7E0,0,0,19383,3,0,146
06:49:45,7A74F7E0,0,0,19393,5,0,141
06:50:49,7A74FFE0,0,0,19395,5,0,142
06:51:53,7A7507E0,0,0,19399,6,1,144
06:54:01,7A7517E0,0,0,19405,9,0,146
06:55:05,7A751FE0,0,0,19406,8,0,143
06:56:09,7A7527E0,0,0,19405,3,0,141
06:58:17,7A7537E0,0,0,19418,9,0,144
06:59:21,7A753FE0,0,0,19420,6,0,145
07:00:25,7A7547E0,0,0,19420,19,0,145
07:02:33,7A7557E0,0,0,19422,18,1,141
07:03:37,7A755FE0,0,0,19420,8,0,143
07:04:41,7A7567E0,0,0,19418,12,0,145
07:06:49,7A7577E0,0,0,19412,30,0,144
07:07:53,7A757FE0,0,0,19410,31,0,142
07:08:57,7A7587E0,0,0,19408,10,0,141
07:11:05,7A7597E0,0,0,19403,8,0,145
07:12:09,7A759FE0,0,0,19400,26,1,146
07:13:13,7A75A7E0,0,0,19398,20,0,144
07:15:21,7A75B7E0,0,0,19394,25,0,142
07:16:25,7A75BFE0,0,0,19392,8,0,143
07:17:29,7A75C7E0,0,0,19391,8,0,145
07:19:37,7A75D7E0,0,0,19382,4,0,143
07:20:41,7A75DFE0,0,0,19389,2,0,141
07:21:45,7A75E7E0,0,0,19391,7,0,142
07:23:53,7A75F7E0,0,0,19394,8,0,146
07:24:57,7A75FFE0,0,0,19395,29,0,145
07:26:01,7A7607E0,0,0,19395,21,0,143
07:28:09,7A7617E0,0,0,19396,25,0,142
07:29:13,7A761FE0,0,0,19397,14,0,144
07:30:17,7A7627E0,0,0,19397,19,0,146
07:32:25,7A7637E0,0,0,19397,14,0,142
07:33:29,7A763FE0,0,0,19397,16,0,141
07:34:33,7A7647E0,0,0,19400,7,0,143
07:36:41,7A7657E0,0,0,19403,11,0,146
07:37:45,7A765FE0,0,0,19405,6,0,144
07:38:49,7A7667E0,0,0,19406,18,1,142
07:40:57,7A7677E0,0,0,19411,9,0,143
07:42:01,7A767FE0,0,0,19411,10,0,145
07:43:05,7A7687E0,0,0,19410,9,0,146
07:45:13,7A7697E0,0,0,19410,7,0,141
07:46:17,7A769FE0,0,0,19411,6,0,142
07:47:21,7A76A7E0,0,0,19412,8,0,144